When you browse on this site, cookies collect data to enhance your experience and personalize the content and advertising you see.
Visit our Privacy Policy to learn more. By continuing to use the site, you agree to this use of cookies and data.

Hourly Weather Yulara

Today, 19 September, Saturday

Time Temperature Precipitation Wind Pressure Humidity
00:00 +16°C° 0 mm 3 mps 715 mmHg 36%
01:00 +14°C° 0 mm 3 mps 715 mmHg 40%
02:00 +14°C° 0 mm 3 mps 715 mmHg 44%
03:00 +14°C° 0 mm 2 mps 715 mmHg 48%
04:00 +13°C° 0 mm 2 mps 715 mmHg 53%
05:00 +13°C° 0 mm 2 mps 715 mmHg 59%
06:00 +13°C° 0 mm 2 mps 715 mmHg 64%
07:00 +14°C° 0 mm 3 mps 716 mmHg 55%
08:00 +18°C° 0 mm 4 mps 716 mmHg 46%
09:00 +21°C° 0 mm 4 mps 717 mmHg 34%
10:00 +23°C° 0 mm 5 mps 716 mmHg 29%
11:00 +26°C° 0 mm 6 mps 716 mmHg 23%
12:00 +28°C° 0 mm 7 mps 715 mmHg 18%
13:00 +29°C° 0 mm 7 mps 715 mmHg 15%
14:00 +31°C° 0 mm 8 mps 714 mmHg 13%
15:00 +32°C° 0 mm 8 mps 714 mmHg 11%
16:00 +30°C° 0 mm 7 mps 714 mmHg 12%
17:00 +28°C° 0 mm 6 mps 714 mmHg 12%
18:00 +27°C° 0 mm 4 mps 714 mmHg 13%
19:00 +25°C° 0 mm 4 mps 714 mmHg 14%
20:00 +23°C° 0 mm 4 mps 715 mmHg 16%
21:00 +21°C° 0 mm 3 mps 715 mmHg 17%
22:00 +21°C° 0 mm 3 mps 715 mmHg 18%
23:00 +20°C° 0 mm 3 mps 715 mmHg 18%

Tomorrow, 20 September, Sunday

Time Temperature Precipitation Wind Pressure Humidity
00:00 +19°C° 0 mm 3 mps 714 mmHg 19%
01:00 +19°C° 0 mm 3 mps 714 mmHg 19%
02:00 +19°C° 0 mm 4 mps 714 mmHg 19%
03:00 +19°C° 0 mm 4 mps 713 mmHg 19%
04:00 +19°C° 0 mm 4 mps 714 mmHg 20%
05:00 +18°C° 0 mm 4 mps 714 mmHg 20%
06:00 +18°C° 0 mm 4 mps 714 mmHg 20%
07:00 +21°C° 0 mm 5 mps 714 mmHg 18%
08:00 +24°C° 0 mm 7 mps 715 mmHg 16%
09:00 +28°C° 0 mm 8 mps 715 mmHg 14%
10:00 +31°C° 0 mm 9 mps 715 mmHg 14%
11:00 +33°C° 0 mm 10 mps 715 mmHg 14%
12:00 +36°C° 0 mm 12 mps 714 mmHg 14%
13:00 +36°C° 0 mm 11 mps 714 mmHg 14%
14:00 +36°C° 0 mm 11 mps 713 mmHg 13%
15:00 +36°C° 0 mm 11 mps 713 mmHg 13%
16:00 +34°C° 0 mm 10 mps 713 mmHg 15%
17:00 +32°C° 0 mm 8 mps 713 mmHg 17%
18:00 +29°C° 0 mm 7 mps 713 mmHg 20%
19:00 +27°C° 0 mm 7 mps 714 mmHg 24%
20:00 +26°C° 0 mm 7 mps 715 mmHg 28%
21:00 +23°C° 0 mm 7 mps 715 mmHg 31%
22:00 +22°C° 0 mm 7 mps 715 mmHg 28%
23:00 +20°C° 0 mm 7 mps 715 mmHg 25%

Day after tomorrow, 21 September, Monday

Time Temperature Precipitation Wind Pressure Humidity
00:00 +18°C° 0 mm 7 mps 715 mmHg 21%
01:00 +17°C° 0 mm 7 mps 715 mmHg 21%
02:00 +16°C° 0 mm 6 mps 715 mmHg 21%
03:00 +15°C° 0 mm 5 mps 716 mmHg 21%
04:00 +14°C° 0 mm 4 mps 716 mmHg 23%
05:00 +13°C° 0 mm 3 mps 716 mmHg 26%
06:00 +13°C° 0 mm 2 mps 717 mmHg 28%
07:00 +13°C° 0 mm 3 mps 717 mmHg 26%
08:00 +15°C° 0 mm 4 mps 718 mmHg 24%
09:00 +17°C° 0 mm 5 mps 719 mmHg 22%
10:00 +20°C° 0 mm 5 mps 718 mmHg 19%
11:00 +21°C° 0 mm 4 mps 718 mmHg 16%
12:00 +23°C° 0 mm 4 mps 718 mmHg 14%
13:00 +25°C° 0 mm 4 mps 717 mmHg 12%
14:00 +26°C° 0 mm 5 mps 717 mmHg 10%
15:00 +27°C° 0 mm 5 mps 716 mmHg 9%
16:00 +26°C° 0 mm 5 mps 716 mmHg 10%
17:00 +25°C° 0 mm 4 mps 717 mmHg 11%
18:00 +22°C° 0 mm 3 mps 717 mmHg 12%
19:00 +21°C° 0 mm 4 mps 717 mmHg 14%
20:00 +19°C° 0 mm 5 mps 718 mmHg 16%
21:00 +17°C° 0 mm 5 mps 718 mmHg 18%
22:00 +16°C° 0 mm 5 mps 718 mmHg 23%
23:00 +15°C° 0 mm 5 mps 718 mmHg 27%

22 September, Tuesday

Time Temperature Precipitation Wind Pressure Humidity
00:00 +14°C° 0 mm 5 mps 718 mmHg 31%
01:00 +13°C° 0 mm 4 mps 718 mmHg 35%
02:00 +13°C° 0 mm 4 mps 718 mmHg 38%
03:00 +12°C° 0 mm 3 mps 718 mmHg 41%
04:00 +11°C° 0 mm 3 mps 719 mmHg 44%
05:00 +11°C° 0 mm 3 mps 719 mmHg 46%
06:00 +10°C° 0 mm 2 mps 720 mmHg 49%
07:00 +13°C° 0 mm 3 mps 720 mmHg 43%
08:00 +15°C° 0 mm 4 mps 721 mmHg 37%
09:00 +19°C° 0 mm 5 mps 721 mmHg 31%
10:00 +20°C° 0 mm 4 mps 721 mmHg 27%
11:00 +22°C° 0 mm 3 mps 721 mmHg 23%
12:00 +24°C° 0 mm 2 mps 721 mmHg 19%
13:00 +25°C° 0 mm 2 mps 720 mmHg 17%
14:00 +26°C° 0 mm 1 mps 719 mmHg 16%
15:00 +26°C° 0 mm 1 mps 719 mmHg 14%
16:00 +26°C° 0 mm 1 mps 719 mmHg 15%
17:00 +25°C° 0 mm 2 mps 719 mmHg 17%
18:00 +24°C° 0 mm 2 mps 720 mmHg 18%
19:00 +21°C° 0 mm 3 mps 720 mmHg 20%
20:00 +20°C° 0 mm 5 mps 720 mmHg 22%
21:00 +19°C° 0 mm 6 mps 721 mmHg 24%
22:00 +17°C° 0 mm 6 mps 721 mmHg 27%
23:00 +16°C° 0 mm 6 mps 721 mmHg 29%

23 September, Wednesday

Time Temperature Precipitation Wind Pressure Humidity
00:00 +16°C° 0 mm 6 mps 721 mmHg 32%
01:00 +15°C° 0 mm 5 mps 721 mmHg 34%
02:00 +14°C° 0 mm 5 mps 721 mmHg 36%
03:00 +13°C° 0 mm 5 mps 721 mmHg 37%
04:00 +13°C° 0 mm 5 mps 721 mmHg 39%
05:00 +12°C° 0 mm 5 mps 722 mmHg 40%
06:00 +12°C° 0 mm 4 mps 722 mmHg 42%
07:00 +14°C° 0 mm 5 mps 723 mmHg 37%
08:00 +17°C° 0 mm 6 mps 723 mmHg 32%
09:00 +20°C° 0 mm 7 mps 724 mmHg 27%
10:00 +22°C° 0 mm 7 mps 723 mmHg 25%
11:00 +23°C° 0 mm 7 mps 723 mmHg 22%
12:00 +26°C° 0 mm 6 mps 723 mmHg 19%
13:00 +27°C° 0 mm 5 mps 722 mmHg 18%
14:00 +27°C° 0 mm 5 mps 721 mmHg 17%
15:00 +28°C° 0 mm 4 mps 721 mmHg 15%
16:00 +27°C° 0 mm 4 mps 721 mmHg 16%
17:00 +26°C° 0 mm 4 mps 721 mmHg 17%
18:00 +25°C° 0 mm 4 mps 721 mmHg 19%
19:00 +22°C° 0 mm 4 mps 722 mmHg 20%
20:00 +21°C° 0 mm 5 mps 722 mmHg 22%
21:00 +20°C° 0 mm 6 mps 722 mmHg 24%
22:00 +19°C° 0 mm 6 mps 722 mmHg 25%
23:00 +17°C° 0 mm 6 mps 722 mmHg 27%

24 September, Thursday

Time Temperature Precipitation Wind Pressure Humidity
00:00 +16°C° 0 mm 6 mps 722 mmHg 28%
01:00 +16°C° 0 mm 5 mps 722 mmHg 29%
02:00 +15°C° 0 mm 5 mps 721 mmHg 31%
03:00 +14°C° 0 mm 4 mps 721 mmHg 32%
04:00 +14°C° 0 mm 4 mps 721 mmHg 33%
05:00 +13°C° 0 mm 5 mps 722 mmHg 34%
06:00 +13°C° 0 mm 5 mps 722 mmHg 35%
07:00 +15°C° 0 mm 6 mps 722 mmHg 31%
08:00 +17°C° 0 mm 7 mps 723 mmHg 27%
09:00 +21°C° 0 mm 7 mps 723 mmHg 23%
10:00 +23°C° 0 mm 7 mps 722 mmHg 21%
11:00 +24°C° 0 mm 6 mps 722 mmHg 19%
12:00 +27°C° 0 mm 5 mps 722 mmHg 16%
13:00 +28°C° 0 mm 4 mps 721 mmHg 16%
14:00 +29°C° 0 mm 3 mps 720 mmHg 15%
15:00 +29°C° 0 mm 2 mps 719 mmHg 15%
16:00 +28°C° 0 mm 2 mps 719 mmHg 16%
17:00 +27°C° 0 mm 2 mps 719 mmHg 18%
18:00 +26°C° 0 mm 3 mps 719 mmHg 19%
19:00 +26°C° 0 mm 3 mps 719 mmHg 19%
20:00 +25°C° 0 mm 3 mps 719 mmHg 20%
21:00 +23°C° 0 mm 4 mps 719 mmHg 20%
22:00 +22°C° 0 mm 4 mps 719 mmHg 20%
23:00 +21°C° 0 mm 4 mps 719 mmHg 21%
Show more